Weather in Vorotynsk

Russia / Kaluga Oblast     54°25′47″N   36°02′43″E
temp.,
°C
wind,
m/s
gust,
m/s
humid.,
%
clouds,
%
prec.,
mm/h
press.,
hPa
HPBL,
m
23 april, fri
fri2300:00+7s4119110 0.1 1015243
03:00+6s512925 0.1 1014273
06:00+6s51293100 0.3 1014300
09:00+11s7147460 0.9 1014752
12:00+15s9135671 0.4 10122094
15:00+6wnw6791100 3.0 1014475
18:00+6w2484100 4.0 1014520
21:00+5ese1189100 4.0 101315
24 april, sat
sat2400:00+4s2394100 0.1 101270
03:00+5w2488100 1.4 1010176
06:00+3wnw4797100 0.3 1010384
09:00+5w357939 0.5 1009749
12:00+8w455599 0.4 10081534
15:00+8w6659100 1.8 10081439
18:00+6wnw6872100 1.2 10081023
21:00+2wnw71397100 1.8 1010584
25 april, sun
sun2500:00+3wnw61182100 2.6 1010698
03:00+1w5128794 2.6 1012410
06:000wsw511895 0.0 1012329
09:00+4wsw687310 0.0 1012858
12:00+6wsw81250100 0.5 10122337
15:00+6wsw7105998 0.6 10121537
18:00+4ssw358162 0.6 1011426
21:00+2wsw358245 0.8 101298
26 april, mon
mon2600:000wsw37845 0.0 1013127
03:00−1sw38875 0.0 1013166
06:00−1sw38885 0.0 1013255
09:00+4wsw567147 0.0 1012944
12:00+6wsw565785 0.6 10121584
15:00+7w675090 1.1 10111813
18:00+6wnw46535 0.0 10111443
21:00+2wsw116910 0.1 101110
27 april, tue
tue2700:000sw227310 0.0 101121
03:00−1wsw237891 0.0 101162
06:000wsw23775 0.0 1010109
09:00+4wsw34615 0.0 1010853
12:00+7wsw565099 0.9 10091833
15:00+8w674895 2.1 10091879
18:00+6w576169 0.8 10101028
21:00+2w38835 1.0 1012147